Tracking 30701 objects as of 14-Jun-2025
HD Live streaming from Space Station
objects crossing your sky now

STARLINK-5051

Track STARLINK-5051 now!
10-day predictions
STARLINK-5051 is classified as:


NORAD ID: 53916
Int'l Code: 2022-119AG
Perigee: 545.8 km
Apogee: 548.0 km
Inclination: 53.2 °
Period: 95.4 minutes
Semi major axis: 6917 km
RCS: Unknown
Launch date: September 24, 2022
Source: United States (US)
Launch site: AIR FORCE EASTERN TEST RANGE (AFETR)
Your satellite tracking list
Your tracking list is empty




NASA's NSSDC Master Catalog

Two Line Element Set (TLE):
1 53916U 22119AG  25165.10426132 -.00002093  00000-0 -11344-3 0  9999
2 53916  53.2170  59.4997 0001644  89.4980 270.6201 15.08834290151577
Source of the keplerian elements: AFSPC